map of SJP home
Great Circle Mapper logo
SJP - Airport
Location
City:  São José do Rio Preto, São Paulo, Brazil
ICAO / IATA:SBSR / SJP

Details
Type:Airport (Aerodrome, Airfield)
Latitude:20°49'00"S (-20.816566)
Longitude:49°24'23"W (-49.406510)
Datum:WGS 1984
Elevation:1784 ft (544 m)
Variation:20.12°W (WMM2015 magnetic declination)
-0.13° annual change
Runways:1
Longest:5381 × 115 ft (1640 × 35 m), paved

Time
Time Zone:UTC-3 (DST-2)
Local Time:

Weather
METAR:SBSR 062000Z 24004KT 9999 SCT030 FEW040TCU SCT070 30/18 Q1011

Related Locations
Nearby:
Farthest:MMD: 12081 mi / 19443 km
Minami Daito Jima, Okinawa, JP

Find:

   beyond  
but within

Other Information
Maps:
NOTAMs:
Links:
Sources:

  
flag of Brazil
flag of São Paulo
  

Sectional Chart

Flight Planning
at skyvector.com

Satellite Image

Google Maps Satellite View

 

Copyright © 2004-2015 Karl L. Swartz. All rights reserved.
The Great Circle Mapper name and logo are trademarks of the Great Circle Mapper.
All other trademarks mentioned herein belong to their respective owners.
Please see credits for attibutions and further copyright information.

  Follow gcmap on Facebook Follow gcmap on Twitter Follow gcmap on Google+

hCard Microformat

Geo Microformat